Weather History for KGJT - February, 2014

Change the Weather History Date:

Wednesday, February 12, 2014

  Actual Average Record
Temperature  
Mean Temperature 35 °F 34 °F  
Max Temperature 43 °F 44 °F 64 °F (1970)
Min Temperature 26 °F 23 °F -11 °F (1933)
Degree Days  
Heating Degree Days 30 31  
Month to date heating degree days 453 401  
Since 1 July heating degree days 4562 3927  
Cooling Degree Days 0 0  
Month to date cooling degree days 0 0  
Year to date cooling degree days 0 0  
Moisture  
Dew Point 27 °F    
Average Humidity 73    
Maximum Humidity 92    
Minimum Humidity 53    
Precipitation  
Precipitation 0.00 in 0.02 in 0.39 in (1903)
Month to date precipitation 0.55 0.21  
Year to date precipitation 1.22 0.79  
Snow  
Snow 0.00 in 0.10 in 5.10 in (1903)
Month to date snowfall 2.6 1.5  
Since 1 July snowfall 25.7 13.8  
Snow Depth T in    
Sea Level Pressure  
Sea Level Pressure 30.19 in    
Wind  
Wind Speed 7 mph (East)    
Max Wind Speed 17 mph    
Max Gust Speed 21 mph    
Visibility 10 miles    
Events      
T = Trace of Precipitation, MM = Missing Value Source: NWS Daily Summary

Daily Weather History Graph

Daily Weather History Graph

Search for Another Location

Airport or City:

Trip Planner

Search our weather history database for the weather conditions in past years. The results will help you decide how hot, cold, wet, or windy it might be!

Date:

Astronomy

Feb. 12, 2014 Rise Set
Actual Time 7:09 AM MST 5:48 PM MST
Civil Twilight 6:41 AM MST 6:15 PM MST
Nautical Twilight 6:10 AM MST 6:47 PM MST
Astronomical Twilight 5:39 AM MST 7:18 PM MST
Moon 4:04 PM MST (2/12) 5:27 AM MST (2/12)
Length of Visible Light 11h 33m
Length of Day
10h 38m
Waxing Gibbous, 96% of the Moon is Illuminated
Feb 12
Waxing Gibbous
Feb 14
Full
Feb 22
Last Quarter
Mar 1
New
Mar 8
First Quarter

Hourly Weather History & Observations

Time (MST) Temp. Windchill Dew Point Humidity Pressure Visibility Wind Dir Wind Speed Gust Speed Precip Events Conditions
12:53 AM 30.9 °F 27.5 °F 26.1 °F 82% 30.26 in 10.0 mi East 3.5 mph - N/A   Clear
1:53 AM 27.0 °F 18.0 °F 24.1 °F 89% 30.28 in 10.0 mi ESE 9.2 mph - N/A   Clear
2:53 AM 30.0 °F 20.5 °F 25.0 °F 82% 30.24 in 10.0 mi ESE 11.5 mph - N/A   Clear
3:53 AM 30.0 °F 20.0 °F 25.0 °F 82% 30.24 in 10.0 mi ESE 12.7 mph - N/A   Clear
4:53 AM 30.9 °F 20.2 °F 25.0 °F 79% 30.24 in 10.0 mi ESE 15.0 mph - N/A   Clear
5:53 AM 28.9 °F 19.2 °F 24.1 °F 82% 30.28 in 10.0 mi East 11.5 mph - N/A   Mostly Cloudy
6:53 AM 26.1 °F 17.6 °F 21.9 °F 84% 30.29 in 10.0 mi East 8.1 mph - N/A   Clear
7:53 AM 28.9 °F 19.2 °F 23.0 °F 78% 30.27 in 10.0 mi SE 11.5 mph - N/A   Scattered Clouds
8:53 AM 32.0 °F 22.5 °F 25.0 °F 75% 30.26 in 10.0 mi ESE 12.7 mph - N/A   Overcast
9:53 AM 34.0 °F 24.6 °F 26.1 °F 73% 30.25 in 10.0 mi ESE 13.8 mph - N/A   Partly Cloudy
10:53 AM 36.0 °F 26.7 °F 26.1 °F 67% 30.24 in 10.0 mi SE 15.0 mph - N/A   Clear
11:53 AM 37.9 °F 32.1 °F 27.0 °F 65% 30.22 in 10.0 mi ESE 8.1 mph - N/A   Clear
12:53 PM 42.1 °F - 27.0 °F 55% 30.15 in 10.0 mi Calm Calm - N/A   Clear
1:53 PM 42.1 °F 40.2 °F 28.0 °F 58% 30.13 in 10.0 mi NW 3.5 mph - N/A   Clear
2:53 PM 42.1 °F 40.2 °F 28.0 °F 58% 30.11 in 10.0 mi NNW 3.5 mph - N/A   Partly Cloudy
3:53 PM 41.0 °F 37.1 °F 30.0 °F 65% 30.10 in 10.0 mi NW 5.8 mph - N/A   Scattered Clouds
4:53 PM 39.0 °F 34.8 °F 32.0 °F 76% 30.10 in 10.0 mi North 5.8 mph - N/A   Scattered Clouds
5:53 PM 39.0 °F 36.8 °F 30.0 °F 70% 30.11 in 10.0 mi NNE 3.5 mph - N/A   Overcast
6:53 PM 37.0 °F 32.4 °F 32.0 °F 82% 30.12 in 10.0 mi NNW 5.8 mph - N/A   Overcast
7:53 PM 36.0 °F 32.1 °F 32.0 °F 86% 30.13 in 10.0 mi NNW 4.6 mph - N/A   Overcast
8:53 PM 35.1 °F - 32.0 °F 89% 30.13 in 10.0 mi Calm Calm - N/A   Mostly Cloudy
9:53 PM 35.1 °F 32.2 °F 30.0 °F 82% 30.12 in 10.0 mi East 3.5 mph - N/A   Partly Cloudy
10:53 PM 33.1 °F 30.0 °F 28.9 °F 85% 30.12 in 10.0 mi East 3.5 mph - N/A   Clear
11:53 PM 34.0 °F 29.8 °F 28.9 °F 82% 30.13 in 10.0 mi East 4.6 mph - N/A   Overcast